Location: ?????????
(38.5999°N, 22.7695°E)
Time: 10:45:54
(UTC+00:00)

Cosmos 2154 Rocket - Pass Details

Date: 19 August 2024
Orbit: 964 x 997 km, 82.9° (Epoch: 07 September)

Event Time Altitude Azimuth Distance (km) Brightness Sun altitude
Rises 01:08:02 0° 10° (N) 3,667 7.8 -27.2°
Reaches altitude 10° 01:11:37 10° 30° (NNE) 2,712 7.3 -26.7°
Maximum altitude 01:15:26 17° 69° (ENE) 2,257 6.6 -26.2°
Drops below altitude 10° 01:19:12 10° 107° (ESE) 2,699 6.6 -25.7°
Sets 01:22:44 0° 127° (SE) 3,641 7.1 -25.2°
